Content
SEND FEEDBACK

Daily
Averages
Monthly
Summary
United States of America

SIMPSON, LOUISIANA


Home > North America > United States > Louisiana
Elevation: 300 feet     Latitude: 31 16N     Longitude: 093 01W

WEATHER
 
SELECT A DAY
Number of Records: 91,243;   Date Range: 3/3/05 - 5/2/13
 
SHARE

PRINT THIS DATA

[ ← Previous Day ]
WEATHER ALMANAC - JANUARY 22, 2013
[ Next Day → ]
[ °C ]   °F
Weather ElementAverageHighLow
Temperature50.3 °F64.9 °F (2:53 pm)37.9 °F (5:53 am)
Dewpoint38.8 °F46 °F (5:53 pm)28.9 °F (6:53 am)
Humidity66.2 %86 % (8:53 pm)47 % (2:53 pm)
Barometer30.29 in30.36 in (9:53 am)30.25 in (2:53 pm)
Wind Speed5 mph9.2 mph (7:53 am)
Weather ElementAverage
Visibility10 mi
Wind DirectionESE (103.5 °)

Weather ElementTotal
Precipitation---
Heating Degree Days13.6 (Base 65)
Growing Degree Days1.4 (Base 50)
Averaged from 23 records on January 22, 2013
WEATHER CONDITIONS BREAKOUT
WIND DIRECTION BREAKOUT
WEATHER BY HOUR - JANUARY 22, 2013
[ °C ]   °F
Local TimeTemperatureDewpointHumidityBarometerVisibilityWind DirectionWind SpeedGust SpeedPrecipitationEventsConditions
1:53 AM42.1 °F34.0 °F73 %30.27 in10.0 miENE (60°)6.9 mphClear
2:53 AM41.0 °F33.1 °F73 %30.27 in10.0 miENE (60°)5.8 mphClear
3:53 AM39.9 °F32.0 °F73 %30.27 in10.0 miENE (60°)6.9 mphClear
4:53 AM39.0 °F30.9 °F73 %30.28 in10.0 miENE (60°)6.9 mphClear
5:53 AM37.9 °F30.0 °F73 %30.30 in10.0 miENE (60°)8.1 mphPartly Cloudy
6:53 AM37.9 °F28.9 °F70 %30.32 in10.0 miVariable5.8 mphMostly Cloudy
7:53 AM39.0 °F28.9 °F67 %30.33 in10.0 miENE (70°)9.2 mphMostly Cloudy
8:53 AM43.0 °F30.9 °F62 %30.34 in10.0 miVariable4.6 mphPartly Cloudy
9:53 AM48.0 °F33.1 °F56 %30.36 in10.0 miVariable3.5 mphClear
10:53 AM53.1 °F36.0 °F52 %30.35 in10.0 miSSW (200°)5.8 mphClear
11:53 AM57.0 °F39.0 °F51 %30.32 in10.0 miSSE (160°)4.6 mphClear
12:53 PM61.0 °F42.1 °F50 %30.28 in10.0 miVariable6.9 mphClear
1:53 PM63.0 °F43.0 °F48 %30.26 in10.0 miWest (260°)3.5 mphScattered Clouds
2:53 PM64.9 °F44.1 °F47 %30.25 in10.0 miWest (260°)5.8 mphClear
3:53 PM64.9 °F44.1 °F47 %30.25 in10.0 miWSW (250°)5.8 mphClear
4:53 PM64.0 °F45.0 °F50 %30.26 in10.0 miSSW (210°)3.5 mphClear
5:53 PM59.0 °F46.0 °F62 %30.27 in10.0 miSSE (160°)3.5 mphClear
6:53 PM53.1 °F46.0 °F77 %30.27 in10.0 miCalmClear
7:53 PM51.1 °F46.0 °F83 %30.28 in9.0 miCalmClear
8:53 PM48.9 °F45.0 °F86 %30.30 in10.0 miCalmClear
9:53 PM48.0 °F44.1 °F86 %30.30 in10.0 miSSE (150°)4.6 mphClear
10:53 PM48.9 °F44.1 °F83 %30.31 in10.0 miSouth (180°)4.6 mphClear
11:53 PM51.1 °F45.0 °F80 %30.30 in10.0 miSouth (180°)8.1 mphClear
Hourly data recorded from KDNK, located miles away from Simpson, Louisiana







STORIES FROM OUR PARTNERS